This is the latest recevied weather packets stored in our database for station/object N8BAP. If no packets are shown the sender has not sent any weather packets the latest 10 day(s).
| Time | Temp. | Humidity | Pressure | Rain* | Wind** | Luminosity | Snow |
|---|---|---|---|---|---|---|---|
| 1777850662 | 12.22° C | 58% | 1019.1 hPa | 0 mm | - | 26 W/m² | - |
| 1777850360 | 12.22° C | 57% | 1019.3 hPa | 0 mm | - | 23 W/m² | - |
| 1777850058 | 12.22° C | 57% | 1019.5 hPa | 0 mm | - | 39 W/m² | - |
| 1777849754 | 12.22° C | 56% | 1019.2 hPa | 0 mm | - | 57 W/m² | - |
| 1777849450 | 12.78° C | 52% | 1019.2 hPa | 0 mm | - | 46 W/m² | - |
| 1777849148 | 12.78° C | 57% | 1019.6 hPa | 0 mm | - | 46 W/m² | - |
| 1777848844 | 12.78° C | 57% | 1019.7 hPa | 0 mm | - | 79 W/m² | - |
| 1777848540 | 12.78° C | 61% | 1019.6 hPa | 0 mm | - | 78 W/m² | - |
| 1777848237 | 12.78° C | 55% | 1019.7 hPa | 0 mm | - | 88 W/m² | - |
| 1777847935 | 12.78° C | 52% | 1019.6 hPa | 0 mm | - | 93 W/m² | - |
| 1777847633 | 13.33° C | 52% | 1019.6 hPa | 0 mm | - | 79 W/m² | - |
| 1777847328 | 13.33° C | 48% | 1019.7 hPa | 0 mm | - | 56 W/m² | - |
| 1777847027 | 13.33° C | 49% | 1019.5 hPa | 0 mm | - | 113 W/m² | - |
| 1777846725 | 13.33° C | 51% | 1019.8 hPa | 0 mm | - | 177 W/m² | - |
| 1777846423 | 13.33° C | 53% | 1019.8 hPa | 0 mm | - | 132 W/m² | - |
| 1777846118 | 12.78° C | 51% | 1019.9 hPa | 0 mm | - | 119 W/m² | - |
| 1777845816 | 12.78° C | 49% | 1019.8 hPa | 0 mm | - | 76 W/m² | - |
| 1777845513 | 12.78° C | 45% | 1019.8 hPa | 0 mm | - | 60 W/m² | - |
| 1777845210 | 12.78° C | 47% | 1019.7 hPa | 0 mm | - | 72 W/m² | - |
| 1777844907 | 12.78° C | 50% | 1019.8 hPa | 0 mm | - | 46 W/m² | - |
| 1777844605 | 12.78° C | 49% | 1020 hPa | 0 mm | - | 66 W/m² | - |
| 1777844302 | 12.78° C | 51% | 1020.1 hPa | 0 mm | - | 112 W/m² | - |
| 1777843999 | 12.22° C | 48% | 1019.8 hPa | 0 mm | - | 82 W/m² | - |
| 1777843696 | 12.22° C | 49% | 1020.3 hPa | 0 mm | - | 42 W/m² | - |
| 1777843394 | 13.33° C | 46% | 1020.6 hPa | 0 mm | - | 30 W/m² | - |
* Rain latest hour (hover to see other rain measurements)
** Current wind speed in m/s (hover to see current wind gust speed)